User: anonymous   Login
Location: *
(40.4270°N, 9.4940°E)
Time: 16:02:00
(UTC+02:00)
Language:

Okean 2 - Orbit

View from above orbital plane
View from above orbital plane
View from above satellite
View from above satellite

Ground track
Ground track

The orbit data is extracted from the following two-line orbital elements,

1 20510U 90018A   16210.24072756  .00000308  00000-0  23403-4 0  9996
2 20510  82.5177 122.4442 0012510   3.9481 156.1280 14.98607555432926
Epoch (UTC): 28 July 2016 05:46:38
Eccentricity: 0.0012510
inclination: 82.5177°
perigee height: 562 km
apogee height: 580 km
right ascension of ascending node: 122.4442°
argument of perigee: 3.9481°
revolutions per day: 14.98607555
mean anomaly at epoch: 156.1280°
orbit number at epoch: 43292

The dashed part of the orbit path shows where the satellite is in the earth's shadow,  

DLR